Latest Coastal Weather Observations for Truscott

IDW60701

Issued at 3:02 am WST Monday 25 May 2015 (issued every 10 minutes, with the page automatically refreshed every 10 minutes)

About coastal observations | Map of coastal stations | Coastal observations for WA | Marine services | Other Formats
Station Details ID: 001020 Name: TRUSCOTT Lat: -14.09 Lon: 126.39 Height: 51.0 m
Data from the previous 72 hours. | See also: Recent months at Truscott
Date/Time
WST
Temp

°C
Wind Pressure Rain
since 9am
mm
Weather Cloud Vis
km
Sea
Height
m
Swell
Dir
 
Speed
knots
Gust
knots
hPa Trend Height
m
Period
s
Dir
25/03:00am 18.5 SSW 3 4 1014.4 - 0.0 - - 10 - - - -
25/02:30am 20.0 SE 3 - 1014.0 - 0.0 - - 10 - - - -
25/02:00am 21.0 ESE 3 - 1014.0 - 0.0 - - 10 - - - -
25/01:30am 21.0 E 5 - 1015.0 - 0.0 - - 10 - - - -
25/01:00am 20.0 E 4 - 1015.0 - 0.0 - - 10 - - - -
25/12:30am 22.0 E 4 - 1015.0 - 0.0 - - 10 - - - -
25/12:00am 21.7 E 4 5 1015.1 - 0.0 - - 7 - - - -
 
Date/Time
WST
Temp

°C
Wind Pressure Rain
since 9am
mm
Weather Cloud Vis
km
Sea
Height
m
Swell
Dir
 
Speed
knots
Gust
knots
hPa Trend Height
m
Period
s
Dir
24/11:30pm 20.0 E 4 - 1015.0 - 0.0 - - 10 - - - -
24/11:00pm 22.0 E 4 - 1015.0 - 0.0 - - 10 - - - -
24/10:30pm 21.0 E 4 - 1016.0 - 0.0 - - 10 - - - -
24/10:00pm 22.0 E 4 - 1016.0 - 0.0 - - 10 - - - -
24/09:30pm 22.0 E 5 - 1016.0 - 0.0 - - 9 - - - -
24/09:25pm 22.0 E 5 - 1016.0 - 0.0 - - 9 - - - -
24/09:06pm 22.0 E 4 - 1016.0 - 0.0 - - 5 - - - -
24/09:00pm 21.3 E 4 - 1015.6 - 0.0 - - 10 - - - -
24/08:30pm 22.0 ENE 4 - 1015.0 - 0.0 - - 10 - - - -
24/08:00pm 23.0 ENE 4 - 1015.0 - 0.0 - - 10 - - - -
24/07:30pm 24.0 E 4 - 1015.0 - 0.0 - - 10 - - - -
24/07:00pm 24.0 E 4 - 1014.0 - 0.0 - - 10 - - - -
24/06:30pm 24.0 ENE 4 - 1014.0 - 0.0 - - 10 - - - -
24/06:00pm 25.1 NE 4 - 1013.5 - 0.0 - - 10 - - - -
24/05:30pm 26.0 NE 4 - 1013.0 - 0.0 - - 10 - - - -
24/05:00pm 28.0 NE 5 - 1013.0 - 0.0 - - 10 - - - -
24/04:30pm 29.0 NE 6 - 1013.0 - 0.0 - - 10 - - - -
24/04:00pm 30.0 NE 7 - 1012.0 - 0.0 - - 10 - - - -
24/03:30pm 31.0 NE 8 - 1012.0 - 0.0 - - 10 - - - -
24/03:00pm 31.3 ENE 7 - 1012.1 - 0.0 - - 10 - - - -
24/02:30pm 31.0 E 6 - 1012.0 - 0.0 - - 10 - - - -
24/02:00pm 31.0 E 8 - 1012.0 - 0.0 - - 10 - - - -
24/01:30pm 31.0 E 9 - 1012.0 - 0.0 - - 10 - - - -
24/01:00pm 31.0 E 9 - 1012.0 - 0.0 - - 10 - - - -
24/12:30pm 31.0 E 10 - 1013.0 - 0.0 - - 10 - - - -
24/12:00pm 30.0 E 10 - - - 0.0 - - - - - - -
24/11:30am 30.0 E 11 - - - 0.0 - - - - - - -
24/11:00am 29.0 E 11 - 1014.0 - 0.0 - - 10 - - - -
24/10:30am 30.0 E 10 - 1015.0 - 0.0 - - 10 - - - -
24/10:00am 28.0 E 12 - 1015.0 - 0.0 - - 10 - - - -
24/09:30am 28.0 E 10 - 1015.0 - 0.0 - - 10 - - - -
24/09:00am 27.1 E 10 - 1015.4 - 0.0 - - 10 - - - -
24/08:30am 27.0 E 12 23 1015.0 - 0.0 - - 7 - - - -
24/08:00am 26.0 E 10 - 1015.0 - 0.0 - - 10 - - - -
24/07:30am 25.0 E 8 - 1015.0 - 0.0 - - 10 - - - -
24/07:00am 24.0 E 6 - 1015.0 - 0.0 - - 10 - - - -
24/06:30am 23.0 E 6 - 1015.0 - 0.0 - - 10 - - - -
24/06:00am 22.6 ESE 6 - 1014.6 - 0.0 - - 10 - - - -
24/05:30am 23.0 ESE 6 - 1014.0 - 0.0 - - 10 - - - -
24/05:00am 23.0 ESE 6 - 1014.0 - 0.0 - - 10 - - - -
24/04:30am 22.0 ESE 5 - 1014.0 - 0.0 - - 10 - - - -
24/04:00am 22.0 ESE 5 - 1013.0 - 0.0 - - 10 - - - -
24/03:30am 22.0 ESE 5 - 1013.0 - 0.0 - - 10 - - - -
24/03:00am 21.1 E 4 - 1013.4 - 0.0 - - 10 - - - -
24/02:30am 21.0 E 5 - 1013.0 - 0.0 - - 10 - - - -
24/02:00am 21.0 E 5 - 1013.0 - 0.0 - - 10 - - - -
24/01:30am 20.0 E 4 - 1014.0 - 0.0 - - 10 - - - -
24/01:00am 21.0 SE 4 - 1014.0 - 0.0 - - 10 - - - -
24/12:30am 21.0 E 4 - 1014.0 - 0.0 - - 9 - - - -
24/12:11am 21.0 E 5 - 1014.0 - 0.0 - - 10 - - - -
24/12:00am 21.6 E 4 - 1014.0 - 0.0 - - 4 - - - -
 
Date/Time
WST
Temp

°C
Wind Pressure Rain
since 9am
mm
Weather Cloud Vis
km
Sea
Height
m
Swell
Dir
 
Speed
knots
Gust
knots
hPa Trend Height
m
Period
s
Dir
23/11:52pm 21.0 E 4 - 1014.0 - 0.0 - - 5 - - - -
23/11:30pm 22.0 ESE 4 - 1014.0 - 0.0 - - 10 - - - -
23/11:00pm 23.0 SE 4 - 1014.0 - 0.0 - - 9 - - - -
23/10:30pm 22.0 SE 4 - 1014.0 - 0.0 - - 10 - - - -
23/10:00pm 22.0 ESE 4 - 1014.0 - 0.0 - - 10 - - - -
23/09:30pm 21.0 ESE 4 - 1014.0 - 0.0 - - 10 - - - -
23/09:00pm 22.1 E 3 - 1014.1 - 0.0 - - 10 - - - -
23/08:30pm 23.0 E 4 - 1014.0 - 0.0 - - 10 - - - -
23/08:00pm 24.0 E 4 - 1014.0 - 0.0 - - 10 - - - -
23/07:30pm 23.0 E 4 - 1014.0 - 0.0 - - 10 - - - -
23/07:00pm 24.0 ENE 3 - 1014.0 - 0.0 - - 10 - - - -
23/06:30pm 24.0 NE 3 - 1014.0 - 0.0 - - 10 - - - -
23/06:00pm 25.0 ENE 3 - 1013.4 - 0.0 - - 10 - - - -
23/05:30pm 26.0 NE 3 - 1013.0 - 0.0 - - 10 - - - -
23/05:00pm 28.0 NE 4 - 1013.0 - 0.0 - - 10 - - - -
23/04:30pm 29.0 NE 5 - 1013.0 - 0.0 - - 10 - - - -
23/04:00pm 30.0 NE 6 - 1012.0 - 0.0 - - 10 - - - -
23/03:30pm 31.0 ENE 7 - 1012.0 - 0.0 - - 10 - - - -
23/03:00pm 30.8 NE 9 - 1012.2 - 0.0 - - 10 - - - -
23/02:30pm 31.0 E 9 - 1012.0 - 0.0 - - 10 - - - -
23/02:00pm 31.0 E 8 - 1013.0 - 0.0 - - 10 - - - -
23/01:30pm 31.0 ENE 9 - 1013.0 - 0.0 - - 10 - - - -
23/01:00pm 31.0 ENE 10 - 1013.0 - 0.0 - - 10 - - - -
23/12:30pm 31.0 ENE 10 - 1014.0 - 0.0 - - 10 - - - -
23/12:00pm 30.8 E 8 - 1014.2 - 0.0 - - 10 - - - -
23/11:30am 30.0 E 10 - 1015.0 - 0.0 - - 10 - - - -
23/11:00am 30.0 E 10 - 1015.0 - 0.0 - - 10 - - - -
23/10:30am 30.0 E 8 - 1015.0 - 0.0 - - 10 - - - -
23/10:00am 29.0 E 12 - 1016.0 - 0.0 - - 10 - - - -
23/09:30am 29.0 E 11 - 1016.0 - 0.0 - - 10 - - - -
23/09:00am 27.8 E 11 - 1016.3 - 0.0 - - 10 - - - -
23/08:30am 28.0 E 11 - 1016.0 - 0.0 - - 10 - - - -
23/08:00am 27.0 ESE 8 - 1016.0 - 0.0 - - 10 - - - -
23/07:30am 25.0 ESE 7 - 1016.0 - 0.0 - - 10 - - - -
23/07:00am 25.0 ESE 6 - 1016.0 - 0.0 - - 10 - - - -
23/06:30am 24.0 ESE 5 - 1016.0 - 0.0 - - 10 - - - -
23/06:00am 22.7 ESE 4 - 1015.6 - 0.0 - - 10 - - - -
23/05:30am 23.0 ESE 5 - 1015.0 - 0.0 - - 10 - - - -
23/05:00am 23.0 ESE 4 - 1015.0 - 0.0 - - 10 - - - -
23/04:30am 23.0 SE 4 - 1015.0 - 0.0 - - 10 - - - -
23/04:00am 22.0 SSE 4 - 1015.0 - 0.0 - - 10 - - - -
23/03:30am 23.0 SSE 4 - 1014.0 - 0.0 - - 10 - - - -
23/03:00am 22.7 SSE 4 - 1014.4 - 0.0 - - 10 - - - -
23/02:30am 22.0 S 4 - 1014.0 - 0.0 - - 10 - - - -
23/02:00am 22.0 CALM 0 - 1014.0 - 0.0 - Partly cloudy 10 - - - -
23/01:30am 23.0 CALM 0 - 1015.0 - 0.0 - - 10 - - - -
23/01:00am 23.0 SE 3 - 1015.0 - 0.0 - - 10 - - - -
23/12:30am 23.0 ESE 4 - 1015.0 - 0.0 - - 10 - - - -
23/12:00am 23.0 E 4 - 1015.0 - 0.0 - - 10 - - - -
 
Date/Time
WST
Temp

°C
Wind Pressure Rain
since 9am
mm
Weather Cloud Vis
km
Sea
Height
m
Swell
Dir
 
Speed
knots
Gust
knots
hPa Trend Height
m
Period
s
Dir
22/11:30pm 23.0 E 4 - 1015.0 - 0.0 - - 10 - - - -
22/11:00pm 24.0 E 4 - 1015.0 - 0.0 - - 10 - - - -
22/10:30pm 24.0 E 4 - 1015.0 - 0.0 - - 10 - - - -
22/10:00pm 24.0 ENE 4 - 1015.0 - 0.0 - - 10 - - - -
22/09:30pm 24.0 ENE 4 - 1015.0 - 0.0 - - 10 - - - -
22/09:00pm 24.3 ENE 4 - 1015.3 - 0.0 - - 10 - - - -
22/08:30pm 24.0 E 4 - 1015.0 - 0.0 - - 10 - - - -
22/08:00pm 25.0 ENE 3 - 1015.0 - 0.0 - - 10 - - - -
22/07:30pm 25.0 ENE 3 - 1015.0 - 0.0 - - 10 - - - -
22/07:00pm 26.0 NE 3 - 1015.0 - 0.0 - - 10 - - - -
22/06:30pm 27.0 NNE 4 - 1014.0 - 0.0 - Partly cloudy 10 - - - -
22/06:00pm 26.9 NNE 4 - 1013.9 - 0.0 - Mostly cloudy 10 - - - -
22/05:30pm 27.0 N 4 - 1014.0 - 0.0 - - 8 - - - -
22/05:00pm 27.0 NNE 6 - 1013.0 - 0.0 - - 10 - - - -
22/04:30pm 28.0 N 8 - 1013.0 - 0.0 - - 10 - - - -
22/04:00pm 29.0 N 8 - 1013.0 - 0.0 - - 10 - - - -
22/03:30pm 30.0 N 9 - 1013.0 - 0.0 - - 10 - - - -
22/03:00pm 30.2 N 10 - 1012.5 - 0.0 - - 10 - - - -
22/02:30pm 31.0 N 10 - 1013.0 - 0.0 - - 9 - - - -
22/02:00pm 32.0 ENE 6 - 1013.0 - 0.0 - - 10 - - - -
22/01:30pm 33.0 ENE 8 - 1013.0 - 0.0 - - 10 - - - -
22/01:00pm 33.0 E 7 - 1013.0 - 0.0 - - 10 - - - -
22/12:30pm 32.0 E 6 - 1014.0 - 0.0 - - 10 - - - -
22/12:00pm 33.0 E 6 - 1014.0 - 0.0 - - 10 - - - -
22/11:30am 32.0 ENE 7 - 1014.0 - 0.0 - - 10 - - - -
22/11:00am 32.0 NNE 5 - 1015.0 - 0.0 - - 10 - - - -
22/10:30am 31.0 N 7 - 1015.0 - 0.0 - - 10 - - - -
22/10:00am 31.0 NE 6 - 1015.0 - 0.0 - - 10 - - - -
22/09:30am 31.0 ESE 5 - 1016.0 - 0.0 - - 10 - - - -
22/09:00am 30.5 ESE 4 - 1016.0 - 0.0 - - 10 - - - -
22/08:30am 29.0 S 3 - 1016.0 - 0.0 - - 10 - - - -
22/08:00am 27.0 SSE 4 - 1016.0 - 0.0 - Partly cloudy 10 - - - -
22/07:30am 25.0 ESE 3 - 1016.0 - 0.0 - Partly cloudy 10 - - - -
22/07:00am 24.0 SSE 4 - 1016.0 - 0.0 - Partly cloudy 10 - - - -
22/06:30am 23.0 SE 4 - 1015.0 - 0.0 - Partly cloudy 10 - - - -
22/06:00am 23.0 SE 5 - 1015.1 - 0.0 - Mostly clear 10 - - - -
22/05:46am 23.0 SSE 6 - 1015.0 - 0.0 - Partly cloudy 5 - - - -
22/05:30am 23.0 CALM 0 - 1014.0 - 0.0 - Partly cloudy 10 - - - -
22/05:00am 22.0 CALM 0 - 1014.0 - 0.0 - - 10 - - - -
22/04:30am 23.0 CALM 0 - 1014.0 - 0.0 - - 10 - - - -
22/04:00am 23.0 CALM 0 - 1014.0 - 0.0 - - 9 - - - -
22/03:30am 23.0 CALM 0 - 1014.0 - 0.0 - - 10 - - - -

Other Formats:

Comma delimited format used in spreadsheet applications
http://www.bom.gov.au/fwo/IDW60701/IDW60701.95101.axf

JavaScript Object Notation format (JSON) in row-major order
http://www.bom.gov.au/fwo/IDW60701/IDW60701.95101.json